This is the latest recevied weather packets stored in our database for station/object KC4JES. If no packets are shown the sender has not sent any weather packets the latest 10 day(s).
| Time | Temp. | Humidity | Pressure | Rain* | Wind** | Luminosity | Snow |
|---|---|---|---|---|---|---|---|
| 1778193896 | 31.67° C | 44% | 1011.5 hPa | 0 mm | - | 49 W/m² | - |
| 1778193593 | 32.22° C | 44% | 1011.7 hPa | 0 mm | - | 50 W/m² | - |
| 1778193289 | 32.22° C | 43% | 1011.6 hPa | 0 mm | - | 55 W/m² | - |
| 1778192987 | 32.22° C | 43% | 1011.5 hPa | 0 mm | - | 61 W/m² | - |
| 1778192683 | 32.22° C | 43% | 1011.6 hPa | 0 mm | - | 66 W/m² | - |
| 1778192380 | 32.22° C | 41% | 1011.6 hPa | 0 mm | - | 79 W/m² | - |
| 1778192077 | 32.22° C | 41% | 1011.6 hPa | 0 mm | - | 83 W/m² | - |
| 1778191772 | 32.22° C | 42% | 1011.6 hPa | 0 mm | - | 73 W/m² | - |
| 1778191471 | 32.78° C | 43% | 1011.6 hPa | 0 mm | - | 77 W/m² | - |
| 1778191167 | 32.22° C | 44% | 1011.7 hPa | 0 mm | - | 120 W/m² | - |
| 1778190864 | 32.78° C | 44% | 1011.7 hPa | 0 mm | - | 96 W/m² | - |
| 1778190561 | 32.78° C | 44% | 1011.6 hPa | 0 mm | - | 112 W/m² | - |
| 1778190259 | 32.78° C | 43% | 1012 hPa | 0 mm | - | 171 W/m² | - |
| 1778189954 | 32.78° C | 44% | 1011.5 hPa | 0 mm | - | 141 W/m² | - |
| 1778189651 | 33.33° C | 43% | 1012 hPa | 0 mm | - | 140 W/m² | - |
| 1778189348 | 33.89° C | 45% | 1012 hPa | 0 mm | - | 194 W/m² | - |
| 1778189044 | 32.78° C | 44% | 1012 hPa | 0 mm | - | 428 W/m² | - |
| 1778188740 | 32.78° C | 45% | 1012.2 hPa | 0 mm | - | 219 W/m² | - |
| 1778188437 | 32.22° C | 49% | 1012.1 hPa | 0 mm | - | 436 W/m² | - |
| 1778188134 | 32.22° C | 48% | 1012.3 hPa | 0 mm | - | 234 W/m² | - |
| 1778187831 | 32.78° C | 48% | 1012.6 hPa | 0 mm | - | 404 W/m² | - |
| 1778187527 | 32.78° C | 47% | 1012.5 hPa | 0 mm | - | 452 W/m² | - |
| 1778187224 | 33.33° C | 47% | 1012.9 hPa | 0 mm | - | 270 W/m² | - |
| 1778186921 | 33.33° C | 48% | 1013 hPa | 0 mm | - | 549 W/m² | - |
| 1778186617 | 32.78° C | 50% | 1012.9 hPa | 0 mm | - | 559 W/m² | - |
* Rain latest hour (hover to see other rain measurements)
** Current wind speed in m/s (hover to see current wind gust speed)